Year,Month,Day,Hour,Minute,Value (Times are PST for temperature in C)
2006,07,21,00,00,18.60
2006,07,21,00,01,18.60
2006,07,21,00,02,18.60
2006,07,21,00,03,18.60
2006,07,21,00,04,18.60
2006,07,21,00,05,18.50
2006,07,21,00,06,18.50
2006,07,21,00,07,18.50
2006,07,21,00,08,18.50
2006,07,21,00,09,18.50
2006,07,21,00,10,18.40
2006,07,21,00,11,18.40
2006,07,21,00,12,18.40
2006,07,21,00,13,18.40
2006,07,21,00,14,18.30
2006,07,21,00,15,18.30
2006,07,21,00,16,18.30
2006,07,21,00,17,18.30
2006,07,21,00,18,18.30
2006,07,21,00,19,18.30
2006,07,21,00,20,18.30
2006,07,21,00,21,18.30
2006,07,21,00,22,18.30
2006,07,21,00,23,18.20
2006,07,21,00,24,18.20
2006,07,21,00,25,18.20
2006,07,21,00,26,18.20
2006,07,21,00,27,18.20
2006,07,21,00,28,18.20
2006,07,21,00,29,18.20
2006,07,21,00,30,18.20
2006,07,21,00,31,18.20
2006,07,21,00,32,18.20
2006,07,21,00,33,18.20
2006,07,21,00,34,18.20
2006,07,21,00,35,18.20
2006,07,21,00,36,18.20
2006,07,21,00,37,18.20
2006,07,21,00,38,18.20
2006,07,21,00,39,18.10
2006,07,21,00,40,18.10
2006,07,21,00,41,18.10
2006,07,21,00,42,18.10
2006,07,21,00,43,18.00
2006,07,21,00,44,17.90
2006,07,21,00,45,17.90
2006,07,21,00,46,17.90
2006,07,21,00,47,17.90
2006,07,21,00,48,17.80
2006,07,21,00,49,17.80
2006,07,21,00,50,17.80
2006,07,21,00,51,17.70
2006,07,21,00,52,17.70
2006,07,21,00,53,17.70
2006,07,21,00,54,17.70
2006,07,21,00,55,17.70
2006,07,21,00,56,17.70
2006,07,21,00,57,17.70
2006,07,21,00,58,17.70
2006,07,21,00,59,17.70
2006,07,21,01,00,17.70
2006,07,21,01,01,17.70
2006,07,21,01,02,17.70
2006,07,21,01,03,17.70
2006,07,21,01,04,17.70
2006,07,21,01,05,17.70
2006,07,21,01,06,17.70
2006,07,21,01,07,17.70
2006,07,21,01,08,17.70
2006,07,21,01,09,17.70
2006,07,21,01,10,17.70
2006,07,21,01,11,17.60
2006,07,21,01,12,17.60
2006,07,21,01,13,17.60
2006,07,21,01,14,17.60
2006,07,21,01,15,17.60
2006,07,21,01,16,17.60
2006,07,21,01,17,17.60
2006,07,21,01,18,17.50
2006,07,21,01,19,17.50
2006,07,21,01,20,17.50
2006,07,21,01,21,17.50
2006,07,21,01,22,17.50
2006,07,21,01,23,17.40
2006,07,21,01,24,17.40
2006,07,21,01,25,17.40
2006,07,21,01,26,17.40
2006,07,21,01,27,17.40
2006,07,21,01,28,17.30
2006,07,21,01,29,17.30
2006,07,21,01,30,17.30
2006,07,21,01,31,17.30
2006,07,21,01,32,17.30
2006,07,21,01,33,17.30
2006,07,21,01,34,17.30
2006,07,21,01,35,17.30
2006,07,21,01,36,17.30
2006,07,21,01,37,17.30
2006,07,21,01,38,17.30
2006,07,21,01,39,17.30
2006,07,21,01,40,17.30
2006,07,21,01,41,17.30
2006,07,21,01,42,17.30
2006,07,21,01,43,17.30
2006,07,21,01,44,17.30
2006,07,21,01,45,17.30
2006,07,21,01,46,17.20
2006,07,21,01,47,17.20
2006,07,21,01,48,17.20
2006,07,21,01,49,17.20
2006,07,21,01,50,17.30
2006,07,21,01,51,17.30
2006,07,21,01,52,17.30
2006,07,21,01,53,17.30
2006,07,21,01,54,17.30
2006,07,21,01,55,17.30
2006,07,21,01,56,17.30
2006,07,21,01,57,17.30
2006,07,21,01,58,17.30
2006,07,21,01,59,17.30
2006,07,21,02,00,17.30
2006,07,21,02,01,17.30
2006,07,21,02,02,17.30
2006,07,21,02,03,17.30
2006,07,21,02,04,17.30
2006,07,21,02,05,17.20
2006,07,21,02,06,17.20
2006,07,21,02,07,17.20
2006,07,21,02,08,17.20
2006,07,21,02,09,17.20
2006,07,21,02,10,17.20
2006,07,21,02,11,17.20
2006,07,21,02,12,17.20
2006,07,21,02,13,17.20
2006,07,21,02,14,17.20
2006,07,21,02,15,17.20
2006,07,21,02,16,17.10
2006,07,21,02,17,17.10
2006,07,21,02,18,17.10
2006,07,21,02,19,17.10
2006,07,21,02,20,17.10
2006,07,21,02,21,17.10
2006,07,21,02,22,17.10
2006,07,21,02,23,17.10
2006,07,21,02,24,17.10
2006,07,21,02,25,17.00
2006,07,21,02,26,17.00
2006,07,21,02,27,17.00
2006,07,21,02,28,17.00
2006,07,21,02,29,17.00
2006,07,21,02,30,17.00
2006,07,21,02,31,16.90
2006,07,21,02,32,16.90
2006,07,21,02,33,16.90
2006,07,21,02,34,16.90
2006,07,21,02,35,16.90
2006,07,21,02,36,16.90
2006,07,21,02,37,16.90
2006,07,21,02,38,16.90
2006,07,21,02,39,16.80
2006,07,21,02,40,16.80
2006,07,21,02,41,16.80
2006,07,21,02,42,16.80
2006,07,21,02,43,16.80
2006,07,21,02,44,16.80
2006,07,21,02,45,16.70
2006,07,21,02,46,16.70
2006,07,21,02,47,16.70
2006,07,21,02,48,16.70
2006,07,21,02,49,16.70
2006,07,21,02,50,16.70
2006,07,21,02,51,16.70
2006,07,21,02,52,16.70
2006,07,21,02,53,16.70
2006,07,21,02,54,16.70
2006,07,21,02,55,16.70
2006,07,21,02,56,16.70
2006,07,21,02,57,16.70
2006,07,21,02,58,16.70
2006,07,21,02,59,16.70
2006,07,21,03,00,16.70
2006,07,21,03,01,16.70
2006,07,21,03,02,16.70
2006,07,21,03,03,16.70
2006,07,21,03,04,16.60
2006,07,21,03,05,16.60
2006,07,21,03,06,16.60
2006,07,21,03,07,16.60
2006,07,21,03,08,16.60
2006,07,21,03,09,16.60
2006,07,21,03,10,16.60
2006,07,21,03,11,16.60
2006,07,21,03,12,16.60
2006,07,21,03,13,16.60
2006,07,21,03,14,16.60
2006,07,21,03,15,16.60
2006,07,21,03,16,16.60
2006,07,21,03,17,16.60
2006,07,21,03,18,16.60
2006,07,21,03,19,16.60
2006,07,21,03,20,16.60
2006,07,21,03,21,16.60
2006,07,21,03,22,16.60
2006,07,21,03,23,16.60
2006,07,21,03,24,16.60
2006,07,21,03,25,16.60
2006,07,21,03,26,16.60
2006,07,21,03,27,16.60
2006,07,21,03,28,16.60
2006,07,21,03,29,16.60
2006,07,21,03,30,16.60
2006,07,21,03,31,16.60
2006,07,21,03,32,16.60
2006,07,21,03,33,16.60
2006,07,21,03,34,16.60
2006,07,21,03,35,16.60
2006,07,21,03,36,16.60
2006,07,21,03,37,16.60
2006,07,21,03,38,16.60
2006,07,21,03,39,16.60
2006,07,21,03,40,16.60
2006,07,21,03,41,16.50
2006,07,21,03,42,16.40
2006,07,21,03,43,16.40
2006,07,21,03,44,16.40
2006,07,21,03,45,16.40
2006,07,21,03,46,16.40
2006,07,21,03,47,16.40
2006,07,21,03,48,16.40
2006,07,21,03,49,16.40
2006,07,21,03,50,16.40
2006,07,21,03,51,16.40
2006,07,21,03,52,16.40
2006,07,21,03,53,16.40
2006,07,21,03,54,16.40
2006,07,21,03,55,16.40
2006,07,21,03,56,16.40
2006,07,21,03,57,16.40
2006,07,21,03,58,16.40
2006,07,21,03,59,16.40
2006,07,21,04,00,16.30
2006,07,21,04,01,16.30
2006,07,21,04,02,16.30
2006,07,21,04,03,16.30
2006,07,21,04,04,16.30
2006,07,21,04,05,16.30
2006,07,21,04,06,16.30
2006,07,21,04,07,16.30
2006,07,21,04,08,16.30
2006,07,21,04,09,16.30
2006,07,21,04,10,16.30
2006,07,21,04,11,16.30
2006,07,21,04,12,16.30
2006,07,21,04,13,16.30
2006,07,21,04,14,16.30
2006,07,21,04,15,16.30
2006,07,21,04,16,16.30
2006,07,21,04,17,16.30
2006,07,21,04,18,16.30
2006,07,21,04,19,16.30
2006,07,21,04,20,16.30
2006,07,21,04,21,16.30
2006,07,21,04,22,16.30
2006,07,21,04,23,16.30
2006,07,21,04,24,16.30
2006,07,21,04,25,16.30
2006,07,21,04,26,16.30
2006,07,21,04,27,16.30
2006,07,21,04,28,16.30
2006,07,21,04,29,16.30
2006,07,21,04,30,16.20
2006,07,21,04,31,16.20
2006,07,21,04,32,16.20
2006,07,21,04,33,16.20
2006,07,21,04,34,16.20
2006,07,21,04,35,16.20
2006,07,21,04,36,16.10
2006,07,21,04,37,16.10
2006,07,21,04,38,16.10
2006,07,21,04,39,16.10
2006,07,21,04,40,16.10
2006,07,21,04,41,16.10
2006,07,21,04,42,16.10
2006,07,21,04,43,16.10
2006,07,21,04,44,16.10
2006,07,21,04,45,16.10
2006,07,21,04,46,16.10
2006,07,21,04,47,16.10
2006,07,21,04,48,16.20
2006,07,21,04,49,16.20
2006,07,21,04,50,16.30
2006,07,21,04,51,16.30
2006,07,21,04,52,16.30
2006,07,21,04,53,16.30
2006,07,21,04,54,16.30
2006,07,21,04,55,16.30
2006,07,21,04,56,16.30
2006,07,21,04,57,16.30
2006,07,21,04,58,16.30
2006,07,21,04,59,16.30
2006,07,21,05,00,16.20
2006,07,21,05,01,16.20
2006,07,21,05,02,16.20
2006,07,21,05,03,16.20
2006,07,21,05,04,16.20
2006,07,21,05,05,16.20
2006,07,21,05,06,16.20
2006,07,21,05,07,16.10
2006,07,21,05,08,16.10
2006,07,21,05,09,16.10
2006,07,21,05,10,16.10
2006,07,21,05,11,16.10
2006,07,21,05,12,16.10
2006,07,21,05,13,16.10
2006,07,21,05,14,16.10
2006,07,21,05,15,16.00
2006,07,21,05,16,15.90
2006,07,21,05,17,15.90
2006,07,21,05,18,15.90
2006,07,21,05,19,15.90
2006,07,21,05,20,15.90
2006,07,21,05,21,15.90
2006,07,21,05,22,15.90
2006,07,21,05,23,15.90
2006,07,21,05,24,15.90
2006,07,21,05,25,15.90
2006,07,21,05,26,15.90
2006,07,21,05,27,15.90
2006,07,21,05,28,15.90
2006,07,21,05,29,15.90
2006,07,21,05,30,15.90
2006,07,21,05,31,15.90
2006,07,21,05,32,15.90
2006,07,21,05,33,15.90
2006,07,21,05,34,15.90
2006,07,21,05,35,15.90
2006,07,21,05,36,15.90
2006,07,21,05,37,15.90
2006,07,21,05,38,15.90
2006,07,21,05,39,15.90
2006,07,21,05,40,15.90
2006,07,21,05,41,15.90
2006,07,21,05,42,15.90
2006,07,21,05,43,16.00
2006,07,21,05,44,16.10
2006,07,21,05,45,16.00
2006,07,21,05,46,15.90
2006,07,21,05,47,15.90
2006,07,21,05,48,15.90
2006,07,21,05,49,15.90
2006,07,21,05,50,15.90
2006,07,21,05,51,15.90
2006,07,21,05,52,15.90
2006,07,21,05,53,15.90
2006,07,21,05,54,15.90
2006,07,21,05,55,15.90
2006,07,21,05,56,15.90
2006,07,21,05,57,15.90
2006,07,21,05,58,15.90
2006,07,21,05,59,16.00
2006,07,21,06,00,16.10
2006,07,21,06,01,16.10
2006,07,21,06,02,16.10
2006,07,21,06,03,16.10
2006,07,21,06,04,16.10
2006,07,21,06,05,16.10
2006,07,21,06,06,16.10
2006,07,21,06,07,16.20
2006,07,21,06,08,16.20
2006,07,21,06,09,16.20
2006,07,21,06,10,16.20
2006,07,21,06,11,16.20
2006,07,21,06,12,16.30
2006,07,21,06,13,16.30
2006,07,21,06,14,16.30
2006,07,21,06,15,16.30
2006,07,21,06,16,16.40
2006,07,21,06,17,16.40
2006,07,21,06,18,16.40
2006,07,21,06,19,16.40
2006,07,21,06,20,16.60
2006,07,21,06,21,16.60
2006,07,21,06,22,16.60
2006,07,21,06,23,16.70
2006,07,21,06,24,16.70
2006,07,21,06,25,16.70
2006,07,21,06,26,16.80
2006,07,21,06,27,16.80
2006,07,21,06,28,16.80
2006,07,21,06,29,16.90
2006,07,21,06,30,16.90
2006,07,21,06,31,16.90
2006,07,21,06,32,17.00
2006,07,21,06,33,17.00
2006,07,21,06,34,17.00
2006,07,21,06,35,17.10
2006,07,21,06,36,17.10
2006,07,21,06,37,17.20
2006,07,21,06,38,17.30
2006,07,21,06,39,17.30
2006,07,21,06,40,17.40
2006,07,21,06,41,17.50
2006,07,21,06,42,17.60
2006,07,21,06,43,17.70
2006,07,21,06,44,17.80
2006,07,21,06,45,17.90
2006,07,21,06,46,17.90
2006,07,21,06,47,18.00
2006,07,21,06,48,18.20
2006,07,21,06,49,18.20
2006,07,21,06,50,18.20
2006,07,21,06,51,18.20
2006,07,21,06,52,18.20
2006,07,21,06,53,18.30
2006,07,21,06,54,18.30
2006,07,21,06,55,18.30
2006,07,21,06,56,18.30
2006,07,21,06,57,18.40
2006,07,21,06,58,18.40
2006,07,21,06,59,18.50
2006,07,21,07,00,18.60
2006,07,21,07,01,18.60
2006,07,21,07,02,18.70
2006,07,21,07,03,18.80
2006,07,21,07,04,18.90
2006,07,21,07,05,19.10
2006,07,21,07,06,19.20
2006,07,21,07,07,19.40
2006,07,21,07,08,19.50
2006,07,21,07,09,19.60
2006,07,21,07,10,19.80
2006,07,21,07,11,19.90
2006,07,21,07,12,20.00
2006,07,21,07,13,20.10
2006,07,21,07,14,20.20
2006,07,21,07,15,20.20
2006,07,21,07,16,20.20
2006,07,21,07,17,20.30
2006,07,21,07,18,20.30
2006,07,21,07,19,20.40
2006,07,21,07,20,20.50
2006,07,21,07,21,20.50
2006,07,21,07,22,20.60
2006,07,21,07,23,20.60
2006,07,21,07,24,20.70
2006,07,21,07,25,20.80
2006,07,21,07,26,20.80
2006,07,21,07,27,20.80
2006,07,21,07,28,20.90
2006,07,21,07,29,20.90
2006,07,21,07,30,20.90
2006,07,21,07,31,21.00
2006,07,21,07,32,21.00
2006,07,21,07,33,21.00
2006,07,21,07,34,21.00
2006,07,21,07,35,21.10
2006,07,21,07,36,21.10
2006,07,21,07,37,21.20
2006,07,21,07,38,21.20
2006,07,21,07,39,21.20
2006,07,21,07,40,21.30
2006,07,21,07,41,21.20
2006,07,21,07,42,21.20
2006,07,21,07,43,21.20
2006,07,21,07,44,21.30
2006,07,21,07,45,21.30
2006,07,21,07,46,21.30
2006,07,21,07,47,21.30
2006,07,21,07,48,21.30
2006,07,21,07,49,21.40
2006,07,21,07,50,21.40
2006,07,21,07,51,21.40
2006,07,21,07,52,21.30
2006,07,21,07,53,21.20
2006,07,21,07,54,21.20
2006,07,21,07,55,21.20
2006,07,21,07,56,21.30
2006,07,21,07,57,21.30
2006,07,21,07,58,21.20
2006,07,21,07,59,21.20
2006,07,21,08,00,21.10
2006,07,21,08,01,21.10
2006,07,21,08,02,21.00
2006,07,21,08,03,21.00
2006,07,21,08,04,21.10
2006,07,21,08,05,21.10
2006,07,21,08,06,21.10
2006,07,21,08,07,21.10
2006,07,21,08,08,21.10
2006,07,21,08,09,21.10
2006,07,21,08,10,21.20
2006,07,21,08,11,21.20
2006,07,21,08,12,21.30
2006,07,21,08,13,21.30
2006,07,21,08,14,21.30
2006,07,21,08,15,21.20
2006,07,21,08,16,21.10
2006,07,21,08,17,21.10
2006,07,21,08,18,21.10
2006,07,21,08,19,21.10
2006,07,21,08,20,21.20
2006,07,21,08,21,21.20
2006,07,21,08,22,21.30
2006,07,21,08,23,21.40
2006,07,21,08,24,21.50
2006,07,21,08,25,21.60
2006,07,21,08,26,21.60
2006,07,21,08,27,21.60
2006,07,21,08,28,21.60
2006,07,21,08,29,21.50
2006,07,21,08,30,21.40
2006,07,21,08,31,21.30
2006,07,21,08,32,21.20
2006,07,21,08,33,21.20
2006,07,21,08,34,21.10
2006,07,21,08,35,21.10
2006,07,21,08,36,21.00
2006,07,21,08,37,21.00
2006,07,21,08,38,21.10
2006,07,21,08,39,21.20
2006,07,21,08,40,21.30
2006,07,21,08,41,21.30
2006,07,21,08,42,21.30
2006,07,21,08,43,21.40
2006,07,21,08,44,21.50
2006,07,21,08,45,21.60
2006,07,21,08,46,21.70
2006,07,21,08,47,21.80
2006,07,21,08,48,21.90
2006,07,21,08,49,21.90
2006,07,21,08,50,22.00
2006,07,21,08,51,22.00
2006,07,21,08,52,22.10
2006,07,21,08,53,22.20
2006,07,21,08,54,22.20
2006,07,21,08,55,22.30
2006,07,21,08,56,22.30
2006,07,21,08,57,22.30
2006,07,21,08,58,22.30
2006,07,21,08,59,22.30
2006,07,21,09,00,22.30
2006,07,21,09,01,22.40
2006,07,21,09,02,22.60
2006,07,21,09,03,22.70
2006,07,21,09,04,22.80
2006,07,21,09,05,22.90
2006,07,21,09,06,23.00
2006,07,21,09,07,23.10
2006,07,21,09,08,23.20
2006,07,21,09,09,23.30
2006,07,21,09,10,23.40
2006,07,21,09,11,23.60
2006,07,21,09,12,23.80
2006,07,21,09,13,24.10
2006,07,21,09,14,24.30
2006,07,21,09,15,24.50
2006,07,21,09,16,24.60
2006,07,21,09,17,24.70
2006,07,21,09,18,25.00
2006,07,21,09,19,25.10
2006,07,21,09,20,25.20
2006,07,21,09,21,25.30
2006,07,21,09,22,25.30
2006,07,21,09,23,25.30
2006,07,21,09,24,25.30
2006,07,21,09,25,25.20
2006,07,21,09,26,25.20
2006,07,21,09,27,25.10
2006,07,21,09,28,25.10
2006,07,21,09,29,25.20
2006,07,21,09,30,25.20
2006,07,21,09,31,25.30
2006,07,21,09,32,25.40
2006,07,21,09,33,25.40
2006,07,21,09,34,25.40
2006,07,21,09,35,25.30
2006,07,21,09,36,25.30
2006,07,21,09,37,25.30
2006,07,21,09,38,25.10
2006,07,21,09,39,24.90
2006,07,21,09,40,24.70
2006,07,21,09,41,24.50
2006,07,21,09,42,24.50
2006,07,21,09,43,24.50
2006,07,21,09,44,24.40
2006,07,21,09,45,24.40
2006,07,21,09,46,24.40
2006,07,21,09,47,24.40
2006,07,21,09,48,24.50
2006,07,21,09,49,24.60
2006,07,21,09,50,24.70
2006,07,21,09,51,24.70
2006,07,21,09,52,24.70
2006,07,21,09,53,24.60
2006,07,21,09,54,24.60
2006,07,21,09,55,24.60
2006,07,21,09,56,24.70
2006,07,21,09,57,24.60
2006,07,21,09,58,24.60
2006,07,21,09,59,24.50
2006,07,21,10,00,24.50
2006,07,21,10,01,24.40
2006,07,21,10,02,24.40
2006,07,21,10,03,24.30
2006,07,21,10,04,24.30
2006,07,21,10,05,24.30
2006,07,21,10,06,24.30
2006,07,21,10,07,24.50
2006,07,21,10,08,24.70
2006,07,21,10,09,24.80
2006,07,21,10,10,24.90
2006,07,21,10,11,24.90
2006,07,21,10,12,25.10
2006,07,21,10,13,25.20
2006,07,21,10,14,25.30
2006,07,21,10,15,25.20
2006,07,21,10,16,25.20
2006,07,21,10,17,25.20
2006,07,21,10,18,25.10
2006,07,21,10,19,25.10
2006,07,21,10,20,25.00
2006,07,21,10,21,24.90
2006,07,21,10,22,24.70
2006,07,21,10,23,24.60
2006,07,21,10,24,24.60
2006,07,21,10,25,24.60
2006,07,21,10,26,24.70
2006,07,21,10,27,24.70
2006,07,21,10,28,24.80
2006,07,21,10,29,24.80
2006,07,21,10,30,24.80
2006,07,21,10,31,24.90
2006,07,21,10,32,24.90
2006,07,21,10,33,25.10
2006,07,21,10,34,25.10
2006,07,21,10,35,25.20
2006,07,21,10,36,25.20
2006,07,21,10,37,25.20
2006,07,21,10,38,25.10
2006,07,21,10,39,25.20
2006,07,21,10,40,25.10
2006,07,21,10,41,25.10
2006,07,21,10,42,25.10
2006,07,21,10,43,25.30
2006,07,21,10,44,25.40
2006,07,21,10,45,25.50
2006,07,21,10,46,25.70
2006,07,21,10,47,25.90
2006,07,21,10,48,26.00
2006,07,21,10,49,26.00
2006,07,21,10,50,26.10
2006,07,21,10,51,26.10
2006,07,21,10,52,26.20
2006,07,21,10,53,26.20
2006,07,21,10,54,26.10
2006,07,21,10,55,25.90
2006,07,21,10,56,25.80
2006,07,21,10,57,25.60
2006,07,21,10,58,25.50
2006,07,21,10,59,25.40
2006,07,21,11,00,25.40
2006,07,21,11,01,25.40
2006,07,21,11,02,25.40
2006,07,21,11,03,25.50
2006,07,21,11,04,25.60
2006,07,21,11,05,25.70
2006,07,21,11,06,25.80
2006,07,21,11,07,25.90
2006,07,21,11,08,26.10
2006,07,21,11,09,26.30
2006,07,21,11,10,26.50
2006,07,21,11,11,26.70
2006,07,21,11,12,26.80
2006,07,21,11,13,26.90
2006,07,21,11,14,26.90
2006,07,21,11,15,27.00
2006,07,21,11,16,27.10
2006,07,21,11,17,27.10
2006,07,21,11,18,27.10
2006,07,21,11,19,27.10
2006,07,21,11,20,27.10
2006,07,21,11,21,27.00
2006,07,21,11,22,26.80
2006,07,21,11,23,26.60
2006,07,21,11,24,26.40
2006,07,21,11,25,26.10
2006,07,21,11,26,25.80
2006,07,21,11,27,25.70
2006,07,21,11,28,25.40
2006,07,21,11,29,25.40
2006,07,21,11,30,25.30
2006,07,21,11,31,25.20
2006,07,21,11,32,25.20
2006,07,21,11,33,25.20
2006,07,21,11,34,25.30
2006,07,21,11,35,25.40
2006,07,21,11,36,25.60
2006,07,21,11,37,25.80
2006,07,21,11,38,26.00
2006,07,21,11,39,26.20
2006,07,21,11,40,26.20
2006,07,21,11,41,26.20
2006,07,21,11,42,26.00
2006,07,21,11,43,25.80
2006,07,21,11,44,25.50
2006,07,21,11,45,25.40
2006,07,21,11,46,25.40
2006,07,21,11,47,25.60
2006,07,21,11,48,25.90
2006,07,21,11,49,26.00
2006,07,21,11,50,26.20
2006,07,21,11,51,26.30
2006,07,21,11,52,26.40
2006,07,21,11,53,26.50
2006,07,21,11,54,26.60
2006,07,21,11,55,26.60
2006,07,21,11,56,26.60
2006,07,21,11,57,26.60
2006,07,21,11,58,26.70
2006,07,21,11,59,26.70
2006,07,21,12,00,26.80
2006,07,21,12,01,26.90
2006,07,21,12,02,27.10
2006,07,21,12,03,27.20
2006,07,21,12,04,27.30
2006,07,21,12,05,27.40
2006,07,21,12,06,27.60
2006,07,21,12,07,27.70
2006,07,21,12,08,27.90
2006,07,21,12,09,28.10
2006,07,21,12,10,28.40
2006,07,21,12,11,28.60
2006,07,21,12,12,28.70
2006,07,21,12,13,28.80
2006,07,21,12,14,28.80
2006,07,21,12,15,28.90
2006,07,21,12,16,28.90
2006,07,21,12,17,28.80
2006,07,21,12,18,28.80
2006,07,21,12,19,28.80
2006,07,21,12,20,28.90
2006,07,21,12,21,28.90
2006,07,21,12,22,28.90
2006,07,21,12,23,28.90
2006,07,21,12,24,29.00
2006,07,21,12,25,29.10
2006,07,21,12,26,29.10
2006,07,21,12,27,28.90
2006,07,21,12,28,29.00
2006,07,21,12,29,29.10
2006,07,21,12,30,29.20
2006,07,21,12,31,29.30
2006,07,21,12,32,29.40
2006,07,21,12,33,29.30
2006,07,21,12,34,29.00
2006,07,21,12,35,28.60
2006,07,21,12,36,28.40
2006,07,21,12,37,28.20
2006,07,21,12,38,28.10
2006,07,21,12,39,28.00
2006,07,21,12,40,27.90
2006,07,21,12,41,27.80
2006,07,21,12,42,27.90
2006,07,21,12,43,28.10
2006,07,21,12,44,28.10
2006,07,21,12,45,28.10
2006,07,21,12,46,27.90
2006,07,21,12,47,27.60
2006,07,21,12,48,27.60
2006,07,21,12,49,27.60
2006,07,21,12,50,27.60
2006,07,21,12,51,27.70
2006,07,21,12,52,27.90
2006,07,21,12,53,27.90
2006,07,21,12,54,27.80
2006,07,21,12,55,27.70
2006,07,21,12,56,27.70
2006,07,21,12,57,27.60
2006,07,21,12,58,27.50
2006,07,21,12,59,27.40
2006,07,21,13,00,27.30
2006,07,21,13,01,27.10
2006,07,21,13,02,27.00
2006,07,21,13,03,27.00
2006,07,21,13,04,26.90
2006,07,21,13,05,26.80
2006,07,21,13,06,26.90
2006,07,21,13,07,27.10
2006,07,21,13,08,27.30
2006,07,21,13,09,27.40
2006,07,21,13,10,27.70
2006,07,21,13,11,27.90
2006,07,21,13,12,28.10
2006,07,21,13,13,28.30
2006,07,21,13,14,28.40
2006,07,21,13,15,28.40
2006,07,21,13,16,28.50
2006,07,21,13,17,28.60
2006,07,21,13,18,28.60
2006,07,21,13,19,28.40
2006,07,21,13,20,28.30
2006,07,21,13,21,28.20
2006,07,21,13,22,28.20
2006,07,21,13,23,28.30
2006,07,21,13,24,28.40
2006,07,21,13,25,28.50
2006,07,21,13,26,28.70
2006,07,21,13,27,28.80
2006,07,21,13,28,28.70
2006,07,21,13,29,28.60
2006,07,21,13,30,28.60
2006,07,21,13,31,28.70
2006,07,21,13,32,28.70
2006,07,21,13,33,28.80
2006,07,21,13,34,28.90
2006,07,21,13,35,28.90
2006,07,21,13,36,28.90
2006,07,21,13,37,28.90
2006,07,21,13,38,28.90
2006,07,21,13,39,29.00
2006,07,21,13,40,29.10
2006,07,21,13,41,29.20
2006,07,21,13,42,29.40
2006,07,21,13,43,29.40
2006,07,21,13,44,29.40
2006,07,21,13,45,29.40
2006,07,21,13,46,29.40
2006,07,21,13,47,29.50
2006,07,21,13,48,29.50
2006,07,21,13,49,29.60
2006,07,21,13,50,29.60
2006,07,21,13,51,29.70
2006,07,21,13,52,29.70
2006,07,21,13,53,29.60
2006,07,21,13,54,29.40
2006,07,21,13,55,29.20
2006,07,21,13,56,29.10
2006,07,21,13,57,29.10
2006,07,21,13,58,29.10
2006,07,21,13,59,29.10
2006,07,21,14,00,29.00
2006,07,21,14,01,28.90
2006,07,21,14,02,28.90
2006,07,21,14,03,28.90
2006,07,21,14,04,28.90
2006,07,21,14,05,28.80
2006,07,21,14,06,28.80
2006,07,21,14,07,28.80
2006,07,21,14,08,28.80
2006,07,21,14,09,28.60
2006,07,21,14,10,28.50
2006,07,21,14,11,28.30
2006,07,21,14,12,28.20
2006,07,21,14,13,28.10
2006,07,21,14,14,27.80
2006,07,21,14,15,27.40
2006,07,21,14,16,27.10
2006,07,21,14,17,26.70
2006,07,21,14,18,26.30
2006,07,21,14,19,26.10
2006,07,21,14,20,26.00
2006,07,21,14,21,26.00
2006,07,21,14,22,26.10
2006,07,21,14,23,26.20
2006,07,21,14,24,26.40
2006,07,21,14,25,26.50
2006,07,21,14,26,26.70
2006,07,21,14,27,26.70
2006,07,21,14,28,26.80
2006,07,21,14,29,26.90
2006,07,21,14,30,27.20
2006,07,21,14,31,27.30
2006,07,21,14,32,27.40
2006,07,21,14,33,27.60
2006,07,21,14,34,27.90
2006,07,21,14,35,28.10
2006,07,21,14,36,28.30
2006,07,21,14,37,28.60
2006,07,21,14,38,29.00
2006,07,21,14,39,29.30
2006,07,21,14,40,29.50
2006,07,21,14,41,29.60
2006,07,21,14,42,29.60
2006,07,21,14,43,29.60
2006,07,21,14,44,29.70
2006,07,21,14,45,29.70
2006,07,21,14,46,29.60
2006,07,21,14,47,29.70
2006,07,21,14,48,29.90
2006,07,21,14,49,30.00
2006,07,21,14,50,30.20
2006,07,21,14,51,30.10
2006,07,21,14,52,30.00
2006,07,21,14,53,29.90
2006,07,21,14,54,29.80
2006,07,21,14,55,29.70
2006,07,21,14,56,29.60
2006,07,21,14,57,29.60
2006,07,21,14,58,29.70
2006,07,21,14,59,29.80
2006,07,21,15,00,29.80
2006,07,21,15,01,29.90
2006,07,21,15,02,29.90
2006,07,21,15,03,29.80
2006,07,21,15,04,29.80
2006,07,21,15,05,29.70
2006,07,21,15,06,29.60
2006,07,21,15,07,29.60
2006,07,21,15,08,29.70
2006,07,21,15,09,29.80
2006,07,21,15,10,29.80
2006,07,21,15,11,29.90
2006,07,21,15,12,29.90
2006,07,21,15,13,30.00
2006,07,21,15,14,30.10
2006,07,21,15,15,30.10
2006,07,21,15,16,30.20
2006,07,21,15,17,30.30
2006,07,21,15,18,30.40
2006,07,21,15,19,30.60
2006,07,21,15,20,30.60
2006,07,21,15,21,30.60
2006,07,21,15,22,30.30
2006,07,21,15,23,30.20
2006,07,21,15,24,30.10
2006,07,21,15,25,29.80
2006,07,21,15,26,29.60
2006,07,21,15,27,29.40
2006,07,21,15,28,29.30
2006,07,21,15,29,29.20
2006,07,21,15,30,29.10
2006,07,21,15,31,29.10
2006,07,21,15,32,29.00
2006,07,21,15,33,28.90
2006,07,21,15,34,28.90
2006,07,21,15,35,28.90
2006,07,21,15,36,28.90
2006,07,21,15,37,28.80
2006,07,21,15,38,28.70
2006,07,21,15,39,28.60
2006,07,21,15,40,28.60
2006,07,21,15,41,28.60
2006,07,21,15,42,28.50
2006,07,21,15,43,28.60
2006,07,21,15,44,28.50
2006,07,21,15,45,28.40
2006,07,21,15,46,28.50
2006,07,21,15,47,28.70
2006,07,21,15,48,28.80
2006,07,21,15,49,28.80
2006,07,21,15,50,28.80
2006,07,21,15,51,28.90
2006,07,21,15,52,28.90
2006,07,21,15,53,28.90
2006,07,21,15,54,29.00
2006,07,21,15,55,29.10
2006,07,21,15,56,29.10
2006,07,21,15,57,29.10
2006,07,21,15,58,29.00
2006,07,21,15,59,28.90
2006,07,21,16,00,28.90
2006,07,21,16,01,28.90
2006,07,21,16,02,28.90
2006,07,21,16,03,29.00
2006,07,21,16,04,29.10
2006,07,21,16,05,29.10
2006,07,21,16,06,29.10
2006,07,21,16,07,29.20
2006,07,21,16,08,29.30
2006,07,21,16,09,29.40
2006,07,21,16,10,29.50
2006,07,21,16,11,29.60
2006,07,21,16,12,29.70
2006,07,21,16,13,29.70
2006,07,21,16,14,29.70
2006,07,21,16,15,29.60
2006,07,21,16,16,29.70
2006,07,21,16,17,29.70
2006,07,21,16,18,29.70
2006,07,21,16,19,29.60
2006,07,21,16,20,29.70
2006,07,21,16,21,29.70
2006,07,21,16,22,29.70
2006,07,21,16,23,29.60
2006,07,21,16,24,29.40
2006,07,21,16,25,29.20
2006,07,21,16,26,29.10
2006,07,21,16,27,29.00
2006,07,21,16,28,28.90
2006,07,21,16,29,28.90
2006,07,21,16,30,28.80
2006,07,21,16,31,28.70
2006,07,21,16,32,28.60
2006,07,21,16,33,28.40
2006,07,21,16,34,28.50
2006,07,21,16,35,28.50
2006,07,21,16,36,28.50
2006,07,21,16,37,28.60
2006,07,21,16,38,28.60
2006,07,21,16,39,28.60
2006,07,21,16,40,28.50
2006,07,21,16,41,28.40
2006,07,21,16,42,28.30
2006,07,21,16,43,28.20
2006,07,21,16,44,28.10
2006,07,21,16,45,28.00
2006,07,21,16,46,27.90
2006,07,21,16,47,27.90
2006,07,21,16,48,27.90
2006,07,21,16,49,28.00
2006,07,21,16,50,28.00
2006,07,21,16,51,28.10
2006,07,21,16,52,28.20
2006,07,21,16,53,28.40
2006,07,21,16,54,28.40
2006,07,21,16,55,28.60
2006,07,21,16,56,28.70
2006,07,21,16,57,28.70
2006,07,21,16,58,28.70
2006,07,21,16,59,28.70
2006,07,21,17,00,28.70
2006,07,21,17,01,28.70
2006,07,21,17,02,28.60
2006,07,21,17,03,28.40
2006,07,21,17,04,28.40
2006,07,21,17,05,28.00
2006,07,21,17,06,27.80
2006,07,21,17,07,27.70
2006,07,21,17,08,27.60
2006,07,21,17,09,27.50
2006,07,21,17,10,27.40
2006,07,21,17,11,27.40
2006,07,21,17,12,27.30
2006,07,21,17,13,27.40
2006,07,21,17,14,27.50
2006,07,21,17,15,27.60
2006,07,21,17,16,27.60
2006,07,21,17,17,27.70
2006,07,21,17,18,27.80
2006,07,21,17,19,27.90